Location: Eaton Estates
(41.3089°N, 82.0057°W)
Time: 13:00:39
(UTC+00:00)

Cosmos 2123 Rocket - Pass Details

Date: 17 October 2021
Orbit: 961 x 992 km, 82.9° (Epoch: 29 November)

Event Time Altitude Azimuth Distance (km) Brightness Sun altitude
Rises 23:39:07 0° 359° (N) 3,717 7.0 -11.2°
Reaches altitude 10° 23:41:50 10° 6° (N) 2,763 6.3 -11.7°
Maximum altitude 23:47:47 41° 76° (ENE) 1,401 4.4 -12.8°
Drops below altitude 10° 23:53:40 10° 145° (SE) 2,736 6.0 -13.9°
Sets 23:56:19 0° 153° (SSE) 3,676 6.8 -14.4°
